Regional Weather Roundup
Issued by NWS

Home | Current Version | Previous Version | Graphics & Text | Print | Product List | Glossary On
Versions: 1 2 3 4 5 6 7 8 9 10 11 12 13 14 15 16 17 18 19 20 21 22 23 24 25 26 27 28 29 30 31 32 33 34 35 36 37 38 39 40 41 42 43 44 45 46 47 48 49 50
000
ASUS45 KBOU 020610
RWRCO

WEATHER ROUNDUP FOR COLORADO
NATIONAL WEATHER SERVICE DENVER/BOULDER CO
1200 AM MDT SUN AUG 02 2015

NOTE: "FAIR" INDICATES FEW OR NO CLOUDS BELOW 12000 FEET WITH NO
SIGNIFICANT WEATHER AND/OR OBSTRUCTIONS TO VISIBILITY.

COZ001>005-013-030-031-020700-
...NORTHWEST COLORADO...

CITY           SKY/WX    TMP DP  RH WIND       PRES   REMARKS
CRAIG          PTCLDY    61  46  57 NE3       30.16S
HAYDEN         PTCLDY    63  41  45 CALM      30.19S
MEEKER         MOCLDY    61  44  53 CALM      30.20R
MOUNT WERNER   NOT AVBL
STEAMBOAT SPGS PTCLDY    64  40  41 E7        30.21S
WALDEN         PTCLDY    50  37  62 SE7       30.30S
$$

COZ006>008-011-020700-
...WEST CENTRAL VALLEYS...

CITY           SKY/WX    TMP DP  RH WIND       PRES   REMARKS
GRAND JUNCTION MOCLDY    75  50  41 SE16      30.08F
MONTROSE       LGT RAIN  65  57  75 SE6       30.22S
EAGLE          MOCLDY    66  45  45 E8        30.23R
RIFLE          CLOUDY    70  49  47 CALM      30.15R
DELTA          CLOUDY    72  55  54 E6        30.18S
NUCLA          CLOUDY    61  57  88 SE7       30.26F
$$

COZ017>023-064>068-020700-
...SOUTHWEST COLORADO...

CITY           SKY/WX    TMP DP  RH WIND       PRES   REMARKS
DURANGO        MOCLDY    63  56  78 CALM      30.27F
CORTEZ         CLEAR     64  59  83 NE5       30.19F
PAGOSA SPRINGS MOCLDY    59  56  91 CALM      30.36S
TELLURIDE      CLOUDY    54  51  91 MISG      30.46F
WOLF CREEK PAS NOT AVBL
$$

COZ009-010-012-014-032>034-037-058>063-020700-
...CENTRAL COLORADO...

CITY           SKY/WX    TMP DP  RH WIND       PRES   REMARKS
ASPEN          CLOUDY    60  46  59 SW7       30.31S
BUENA VISTA    CLOUDY    59  47  65 CALM      30.36S
COPPER MTN     MOCLDY    55  34  44 SW3       30.64S
BERTHOUD PASS  MOCLDY    46  36  66 SE13      30.69R
COTTONWOOD PAS CLOUDY    59  39  47 W3        30.49S
GUNNISON       CLOUDY    55  52  88 CALM      30.40S
KREMMLING      PTCLDY    57  34  41 CALM      30.28R
LEADVILLE      CLOUDY    51  41  68 N3        30.48S
MONARCH PASS   CLOUDY    45  39  81 SW12      30.74S
SALIDA         CLOUDY    63  46  54 SW5       30.40
SUNLIGHT       CLOUDY    55  43  62 CALM      30.57S
WILKERSON PASS CLOUDY    50  39  66 S5        30.62S
$$

COZ069>075-020700-
...SAN LUIS VALLEY/SANGRE DE CRISTO MOUNTAINS...

CITY           SKY/WX    TMP DP  RH WIND       PRES   REMARKS
ALAMOSA        CLOUDY    58  50  75 E5        30.34S
LA VETA PASS   CLOUDY    48  39  71 MISG      30.52S
SAGUACHE       CLOUDY    59  48  67 CALM      30.37F
$$

COZ035-036-038>040-020700-
...NORTHERN COLORADO FRONT RANGE...

CITY           SKY/WX    TMP DP  RH WIND       PRES   REMARKS
DENVER INTL AP MOCLDY    74  46  36 S13       30.10R
DMNS CITY PARK   N/A     75  48  38 S7G13     30.10R
AURORA         MOCLDY    74  47  38 S16       30.12R
FRONT RANGE AP MOCLDY    72  45  37 S14       30.12S
ERIE MUNI ARPT MOCLDY    68  51  54 W7        30.07S
BOULDER MUN AP MOCLDY    72  46  40 CALM      30.08R
CENTENNIAL     CLOUDY    74  47  38 S10       30.14R
BROOMFIELD     MOCLDY    72  50  46 CALM      30.12R
FORT COLLINS   PTCLDY    70  55  60 N8        30.09R
LONGMONT       PTCLDY    73  53  48 N6        30.09R
$$

COZ041-046-047-076>085-087-088-020700-
...PIKES PEAK/PALMER DIVIDE AND SOUTHERN FOOTHILLS...

CITY           SKY/WX    TMP DP  RH WIND       PRES   REMARKS
COLO. SPRINGS  CLOUDY    69  49  48 CALM      30.21S
A. F. ACADEMY  CLOUDY    61  50  65 N7        30.22S
ELLICOTT       CLOUDY   N/A N/A N/A CALM      30.21R
FALCON         CLOUDY    64  50  58 W6        30.26S
FORT CARSON    CLOUDY    69  49  50 S3        30.17S
LIMON          CLOUDY    64  52  64 SW3       30.15F
MONUMENT HILL  NOT AVBL
TRINIDAD       CLOUDY    66  55  67 W6        30.21F
$$

COZ042>045-048>051-090-091-020700-
...NORTHEAST COLORADO...

CITY           SKY/WX    TMP DP  RH WIND       PRES   REMARKS
GREELEY ARPT   PTCLDY    70  52  52 E7        30.07R
AKRON          CLOUDY    69  55  60 S14       30.08F
BURLINGTON     CLOUDY    71  64  78 S8        30.07F
WRAY           MOCLDY    74  56  54 S8        30.03F
STERLING       CLOUDY    68  59  73 W6        30.04F
HOLYOKE        NOT AVBL
FORT MORGAN    CLOUDY    70  54  57 S7        30.09F
$$

COZ086-089-092>099-020700-
...SOUTHEAST COLORADO...

CITY           SKY/WX    TMP DP  RH WIND       PRES   REMARKS
PUEBLO         CLOUDY    71  61  70 CALM      30.13R
LA JUNTA       CLOUDY    73  57  57 NW10      30.06F
LAMAR          CLOUDY    74  58  57 CALM      29.99F
SPRINGFIELD      N/A     69  59  70 CALM      30.09F
$$


USA.gov is the U.S. government's official web portal to all federal, state and local government web resources and services.